Location: Unspecified
(40.7945°N, 0.0000°E)
Time: 06:55:52
(UTC+00:00)

Explorer 7 - Pass Details

Date: 22 January 2021
Orbit: 484 x 677 km, 50.3° (Epoch: 28 February)

Event Time Altitude Azimuth Distance (km) Brightness Sun altitude
Rises 11:00:29 0° 303° (WNW) 2,761 10.0 27.4°
Reaches altitude 10° 11:02:41 10° 304° (WNW) 1,894 9.2 27.5°
Maximum altitude 11:07:02 90° 24° (NNE) 611 7.5 27.8°
Drops below altitude 10° 11:11:40 10° 125° (SE) 2,008 10.6 28.1°
Sets 11:14:03 0° 125° (SE) 2,941 11.2 28.2°
